Regional Weather Roundup
Issued by NWS State College, PA

Home | Current Version | Previous Version | Text Only | Print | Product List | Glossary On
Versions: 1 2 3 4 5 6 7 8 9 10 11 12 13 14 15 16 17 18 19 20 21 22 23 24 25 26 27 28 29 30 31 32 33 34 35 36 37 38 39 40 41 42 43 44 45 46 47 48 49 50
000
ASUS41 KCTP 190203
RWRCTP

REGIONAL WEATHER ROUNDUP
NATIONAL WEATHER SERVICE STATE COLLEGE PA
1000 PM EDT THU SEP 18 2014

Note: "fair" indicates few or no clouds below 12,000 feet with no
significant weather and/or obstructions to visibility.

* = STATION THAT DOES NOT REPORT PRECIPITATION /E.G. RAIN...SNOW...ETC/
    THUNDER OR FOG.

PAZ002>004-007>009-013>016-020>023-029>032-190300-
WESTERN PENNSYLVANIA

CITY           SKY/WX    TMP DP  RH WIND       PRES   REMARKS
ERIE           PTCLDY    56  49  77 E3        30.17R
MEADVILLE      CLEAR     51  48  89 CALM      30.17R
FRANKLIN*      CLEAR     52  45  76 N5        30.18S
NEW CASTLE     NOT AVBL
BEAVER COUNTY  NOT AVBL
BUTLER*        CLEAR     55  48  76 N6        30.17R
PITTSBURGH INT PTCLDY    60  51  72 N13       30.14R
PITTSBURGH     CLOUDY    58  46  64 VRB6      30.13R
INDIANA*       CLOUDY    54  50  87 CALM      30.18R
LATROBE        CLEAR     52  52 100 CALM      30.15R
WASHINGTON CO* PTCLDY    48  46  93 CALM      30.14R
$$

PAZ004>006-010>012-017>019-024>028-033>037-041-042-045-046-049>053-190300-
CENTRAL PENNSYLVANIA

CITY           SKY/WX    TMP DP  RH WIND       PRES   REMARKS
BRADFORD       CLEAR     46  43  89 CALM      30.17R
DUBOIS         CLEAR     53  48  83 N8        30.15R
CLEARFIELD     CLEAR     53  48  83 N6        30.15R
JOHNSTOWN      CLEAR     56  42  59 N6        30.15R
ALTOONA        CLEAR     50  47  89 CALM      30.14R
STATE COLLEGE  MOCLDY    55  49  80 N5        30.14R
WILLIAMSPORT   PTCLDY    59  49  69 N8        30.14R
SELINSGROVE    PTCLDY    53  50  89 N3        30.12R
FT INDIANTOWN  CLEAR     54  51  90 CALM      30.10R
CAPITAL CITY   CLEAR     55  48  77 SW3       30.10R
HARRISBURG     CLEAR     57  49  74 CALM      30.09R
YORK           CLEAR     49  46  90 CALM      30.10R
$$

PAZ038>040-043-044-047-048-054-055-060>062-067>071-190300-
EASTERN PENNSYLVANIA

CITY           SKY/WX    TMP DP  RH WIND       PRES   REMARKS
SCRANTON       PTCLDY    59  50  72 N13G22    30.13R
MOUNT POCONO   CLEAR     55  47  74 N12       30.12R
ALLENTOWN      MOCLDY    58  46  64 NW3       30.09R
QUAKERTOWN*    CLEAR     52  48  87 CALM      30.10R
READING        CLEAR     59  48  67 NW3       30.08R
LANCASTER      CLEAR     59  45  59 CALM      30.09R
COATESVILLE    CLEAR     55  54  94 CALM      30.10R
POTTSTOWN      CLEAR     54  50  86 CALM      30.09R
BLUE BELL      PTCLDY    57  55  94 CALM      30.08R
DOYLESTOWN     CLEAR     57  51  80 CALM      30.07R
WILLOW GROVE   NOT AVBL
NORTH PHILA    CLEAR     63  53  70 W5        30.08R
PHILADELPHIA   PTCLDY    65  57  75 SW3       30.08R
$$



USA.gov is the U.S. government's official web portal to all federal, state and local government web resources and services.